User: anonymous   Login
Location: Unspecified
(0.0000°N, 0.0000°E)
Time: 06:40:34
(UTC+00:00)
Language:

Vanguard 2 Rocket - Orbit

View from above orbital plane
View from above orbital plane
View from above satellite
View from above satellite

Ground track
Ground track

The orbit data is extracted from the following two-line orbital elements,

1    12U 59001B   20299.61655471 +.00000387 +00000-0 +23440-3 0  9999
2    12 032.8980 255.5759 1666272 040.2676 331.0109 11.44340578294894
Epoch (UTC): 25 October 2020 14:47:50
Eccentricity: 0.1666272
inclination: 32.8980°
perigee height: 554 km
apogee height: 3326 km
right ascension of ascending node: 255.5759°
argument of perigee: 40.2676°
revolutions per day: 11.44340578
mean anomaly at epoch: 331.0109°
orbit number at epoch: 29489

The dashed part of the orbit path shows where the satellite is in the earth's shadow,  

DLR